Wind_Speed
13 12 10 8 9 11 12 12 11 10 10 11 13 14 16 16 14 13 13 12 13 14 14 15 16 16 17 19 18 17 15 14 13 12 11 10 8 6 7 7 6 5 3
13 13 12 10 9 11 12 12 10 7 6 7 9 12 15 16 15 14 13 12 12 12 12 13 16 17 19 21 20 19 17 15 14 13 11 9 8 7 6 6 5 5 4
14 14 14 12 11 12 12 11 11 8 6 6 6 8 12 14 14 14 14 14 14 13 13 13 16 19 20 20 20 19 18 17 15 12 10 9 8 7 6 6 5 5 4
15 15 15 14 12 12 13 12 12 11 7 4 4 5 8 10 12 12 13 14 15 16 15 14 15 16 16 16 16 16 16 14 12 11 9 8 8 6 6 5 5 6 6
14 16 16 15 13 14 14 14 13 13 9 6 4 3 4 7 9 11 12 14 16 16 15 14 14 13 13 12 12 12 12 12 11 11 10 9 8 6 5 5 7 8 8
14 16 17 16 15 16 17 16 15 14 12 9 5 1 2 4 7 9 11 13 15 16 15 15 15 15 14 13 13 12 11 11 12 12 12 10 8 6 6 6 7 8 9
15 18 19 18 18 19 19 17 15 14 13 11 8 5 3 4 5 6 8 11 14 15 16 17 17 17 17 17 16 16 15 13 14 14 13 10 9 8 8 9 9 8 9
20 21 23 22 22 21 20 20 18 17 16 14 11 9 8 7 6 5 6 7 11 14 15 16 17 18 19 19 19 19 19 18 18 17 15 13 12 11 11 12 11 10 10
25 24 25 25 24 24 22 22 22 21 20 17 13 12 12 11 9 8 8 8 8 9 11 13 15 16 18 19 19 19 19 20 21 21 18 17 15 13 12 13 14 14 13
26 27 27 28 27 28 27 25 24 23 23 20 17 15 15 14 13 13 12 12 11 11 11 12 13 14 16 17 17 18 19 19 21 22 20 18 16 16 15 15 16 16 16
25 26 28 31 30 32 32 30 28 25 25 23 19 18 18 18 17 16 16 16 16 15 14 13 13 14 15 15 15 16 18 19 20 21 21 19 18 18 17 17 17 17 17
22 24 27 31 33 33 33 32 30 28 27 24 23 22 21 21 19 17 16 17 18 17 16 15 14 15 15 15 15 15 17 18 19 21 21 21 20 19 19 18 18 18 19
20 22 28 31 32 32 32 31 31 30 29 28 28 26 24 22 21 19 17 16 15 16 17 17 17 17 17 17 16 15 16 17 18 20 21 22 22 22 21 21 20 20 22
17 19 23 29 32 32 31 31 31 32 32 31 31 30 27 25 23 21 20 18 15 16 18 18 18 18 17 17 17 16 16 17 18 19 21 22 23 23 23 22 22 23 25
14 14 15 18 25 31 33 33 33 32 32 31 30 31 30 28 27 25 23 22 21 19 19 19 19 19 18 17 17 17 17 18 19 20 22 23 24 24 23 23 24 25 25
15 16 15 16 19 26 30 33 33 33 33 32 30 29 30 31 30 28 27 26 25 23 21 21 20 20 19 18 17 18 19 20 20 21 22 24 24 23 23 24 25 25 25
15 16 18 18 18 20 24 29 32 32 32 32 32 31 32 33 32 31 30 29 28 26 24 23 22 22 21 19 18 20 21 21 21 20 21 22 22 23 24 24 24 23 23
16 16 17 19 20 21 22 25 30 31 32 33 35 35 36 36 35 33 33 33 31 28 26 25 26 25 24 22 20 21 22 23 22 20 21 22 22 23 23 23 23 21 21
16 15 17 18 19 20 22 25 29 31 32 33 34 34 34 33 32 33 34 35 34 31 29 28 28 27 26 23 22 22 23 24 22 22 22 23 23 22 21 21 21 19 18
17 17 18 19 19 19 19 22 26 29 31 33 33 33 33 32 31 31 32 33 33 32 30 28 27 25 23 21 20 21 21 21 21 21 22 22 22 22 20 19 18 17 17
20 19 19 20 22 23 23 22 22 24 27 31 33 33 33 32 31 30 29 30 30 31 30 28 26 24 22 19 20 21 21 21 21 21 22 22 22 21 19 18 17 16 16
22 22 21 22 22 22 22 21 22 24 26 27 31 33 33 31 30 31 30 29 30 30 29 27 27 26 23 20 19 21 22 23 24 24 23 22 22 21 20 19 19 17 16
25 24 23 23 23 22 21 21 21 24 26 27 28 30 32 32 30 30 32 32 31 31 29 27 27 27 25 22 20 21 21 22 24 24 24 23 23 22 21 20 20 19 18
25 25 25 24 24 24 24 23 23 24 26 27 27 28 30 32 32 31 32 32 32 32 30 29 28 27 26 25 23 22 22 22 24 24 25 25 23 22 21 21 20 20 19
25 24 25 25 25 26 26 27 26 26 28 29 28 27 26 30 33 33 33 33 33 33 32 30 28 28 27 26 25 24 24 23 24 25 26 26 24 21 21 21 20 19 18
27 26 25 25 25 25 26 28 28 28 28 29 29 28 28 28 31 34 35 34 34 33 33 32 31 30 28 26 25 25 25 24 25 26 27 27 24 22 22 21 21 19 18
Wind_Direction
252 244 240 239 236 240 247 251 246 242 245 242 239 239 239 243 248 247 239 229 218 212 211 211 212 213 213 212 214 219 227 239 254 271 276 267 260 265 264 261 259 254 249
252 244 239 236 232 237 243 250 240 221 239 250 246 243 238 237 245 245 234 228 219 215 216 216 215 217 219 220 224 229 235 246 259 267 263 254 251 252 253 255 257 257 257
252 244 238 236 234 236 239 245 238 215 222 240 249 249 240 234 239 239 233 228 222 218 219 218 218 221 224 224 228 235 243 251 253 250 247 247 246 242 240 243 249 250 255
251 243 239 237 235 237 238 241 241 229 223 245 284 259 235 226 230 230 226 222 220 219 219 220 220 223 225 226 229 234 239 241 236 236 237 236 236 231 227 233 248 254 256
249 241 239 237 232 236 242 239 246 235 226 242 288 295 232 221 226 225 220 220 221 221 221 222 223 224 226 229 230 230 233 234 234 233 226 219 223 230 237 245 256 260 259
254 243 240 237 233 236 241 238 242 236 231 232 241 249 178 210 224 227 223 221 222 222 224 227 228 227 230 231 231 230 232 234 233 227 217 217 227 242 254 257 258 262 260
264 253 247 241 237 236 236 236 235 231 229 220 218 226 204 192 206 214 221 220 220 221 223 229 235 237 235 233 233 234 237 240 235 226 223 231 241 252 257 256 253 254 256
273 263 253 245 238 236 235 232 229 230 229 222 218 224 230 223 218 206 203 210 219 223 225 228 235 241 240 238 238 241 244 241 232 225 228 238 246 253 257 260 256 255 258
273 266 253 244 238 236 234 227 223 230 231 228 227 225 230 227 230 228 218 214 220 231 237 238 240 243 245 245 245 247 247 239 228 225 231 241 248 252 258 263 262 262 264
269 260 249 239 235 234 232 226 223 231 234 234 235 235 234 236 240 244 238 231 227 231 236 241 243 244 248 250 251 251 249 242 232 229 236 245 250 254 259 262 263 264 264
267 255 244 236 233 234 232 228 229 235 234 232 237 240 242 244 244 242 241 239 236 234 236 239 243 248 252 254 256 255 251 248 242 240 244 252 255 258 263 264 266 267 270
266 252 243 236 233 234 233 230 231 233 229 233 239 240 244 247 246 239 237 239 239 235 237 242 249 253 254 253 254 256 254 250 247 248 251 255 259 262 264 262 264 268 276
268 259 245 237 230 228 228 226 225 225 227 239 241 241 242 244 245 239 235 236 238 239 240 245 253 256 253 251 253 254 252 250 249 250 253 256 260 262 260 261 267 274 281
272 266 253 239 225 220 222 223 222 226 232 240 240 239 241 241 243 242 238 238 243 247 247 246 252 255 250 249 251 253 253 254 254 253 255 258 261 260 259 263 272 279 283
267 268 266 249 229 223 223 223 225 230 235 242 239 238 241 242 244 244 243 245 248 253 253 247 247 250 250 251 253 255 255 258 260 260 260 261 260 259 261 267 276 281 284
269 262 257 250 240 232 229 227 230 235 239 240 236 237 238 239 244 246 246 246 249 253 256 252 249 249 251 253 255 257 259 261 264 264 263 262 260 260 265 272 278 281 283
276 261 253 254 249 242 238 233 232 233 237 238 238 240 242 241 242 244 245 245 247 248 252 251 251 252 253 252 253 258 261 261 262 264 264 264 263 266 272 276 277 280 282
281 269 259 256 255 252 248 242 236 234 237 240 242 244 246 246 243 244 244 243 241 242 247 249 251 253 253 251 251 257 264 265 265 267 268 268 269 271 274 276 279 281 282
276 265 257 255 256 256 253 248 244 242 241 240 241 243 244 243 242 240 240 239 238 240 244 249 252 252 252 250 253 259 263 265 266 268 269 269 269 271 273 276 276 278 282
270 264 260 258 258 258 258 256 251 249 245 240 240 241 241 240 238 237 236 234 236 238 242 245 247 250 250 252 256 257 258 260 263 266 265 265 268 271 272 272 271 276 281
266 263 263 263 261 260 261 261 256 252 247 241 239 238 238 238 236 234 232 232 235 237 239 241 245 248 252 255 257 255 254 257 260 262 262 262 267 271 273 271 273 276 281
268 265 262 260 260 260 260 259 255 254 253 248 241 237 235 234 233 231 229 230 233 235 236 238 241 246 250 253 254 256 257 259 260 259 260 262 266 269 270 271 274 277 282
268 266 259 254 255 257 259 258 255 252 249 248 243 237 232 230 230 230 228 228 229 231 231 233 237 244 249 249 253 255 256 257 258 259 260 261 263 267 269 273 276 276 281
268 265 259 253 254 259 259 256 252 251 249 246 244 240 236 232 229 228 226 226 227 229 230 231 233 237 242 246 251 250 252 256 257 258 258 259 261 267 271 274 274 272 275
270 265 258 255 255 259 259 255 250 249 250 249 247 244 242 236 231 228 226 225 226 229 229 229 231 235 241 246 249 249 254 256 257 257 256 258 260 265 270 272 271 268 269
268 265 259 254 254 254 251 250 249 247 247 248 247 245 244 240 236 232 229 227 227 228 227 227 231 236 241 245 246 247 250 255 259 257 256 258 258 261 265 267 267 266 262
Height
5844 5845 5847 5847 5848 5849 5850 5851 5851 5852 5854 5854 5854 5855 5857 5859 5861 5862 5863 5865 5866 5868 5870 5873 5876 5879 5881 5884 5886 5888 5889 5890 5891 5892 5892 5893 5893 5893 5894 5894 5894 5895 5896
5842 5842 5844 5845 5845 5846 5848 5849 5849 5850 5852 5852 5852 5853 5854 5856 5858 5859 5861 5862 5864 5866 5868 5870 5873 5877 5880 5882 5884 5886 5888 5889 5889 5890 5890 5891 5891 5892 5892 5892 5893 5894 5894
5838 5839 5841 5842 5843 5843 5845 5847 5848 5848 5849 5850 5850 5851 5851 5853 5855 5856 5858 5860 5862 5864 5866 5868 5871 5874 5877 5880 5882 5884 5886 5886 5887 5888 5888 5888 5889 5890 5891 5891 5891 5892 5893
5835 5836 5838 5840 5840 5841 5843 5845 5846 5847 5848 5849 5849 5849 5850 5851 5853 5854 5856 5858 5860 5862 5865 5867 5870 5872 5875 5877 5879 5881 5882 5884 5885 5886 5886 5886 5887 5889 5889 5889 5890 5890 5891
5833 5833 5835 5838 5838 5839 5841 5843 5844 5846 5847 5848 5848 5848 5848 5849 5851 5853 5855 5857 5859 5862 5865 5867 5869 5871 5873 5875 5876 5878 5880 5881 5882 5883 5884 5885 5886 5887 5888 5888 5889 5889 5890
5831 5831 5833 5835 5836 5837 5838 5840 5842 5844 5846 5847 5848 5848 5848 5848 5849 5851 5853 5856 5858 5861 5864 5866 5868 5870 5871 5873 5874 5876 5878 5879 5881 5882 5883 5885 5885 5886 5886 5887 5887 5888 5888
5828 5828 5829 5831 5833 5834 5836 5838 5839 5841 5843 5845 5847 5847 5848 5849 5849 5850 5852 5854 5857 5859 5861 5863 5866 5867 5869 5871 5872 5874 5876 5877 5879 5880 5882 5883 5884 5884 5885 5886 5886 5887 5887
5824 5825 5825 5827 5829 5831 5833 5835 5837 5839 5841 5843 5845 5846 5847 5849 5848 5849 5851 5853 5854 5856 5858 5860 5863 5865 5866 5868 5869 5871 5873 5875 5876 5878 5880 5881 5882 5883 5883 5884 5884 5884 5884
5819 5819 5820 5822 5824 5826 5829 5831 5833 5836 5838 5841 5842 5844 5846 5846 5847 5848 5849 5851 5853 5854 5856 5858 5860 5862 5863 5865 5866 5867 5869 5872 5873 5875 5877 5878 5879 5880 5880 5881 5881 5881 5882
5813 5813 5814 5816 5818 5821 5824 5827 5830 5832 5835 5838 5840 5842 5844 5845 5845 5846 5848 5849 5850 5852 5854 5856 5857 5859 5860 5861 5862 5863 5865 5867 5869 5871 5873 5874 5874 5875 5876 5877 5878 5878 5879
5806 5806 5807 5809 5812 5815 5818 5822 5825 5828 5831 5834 5836 5838 5840 5841 5842 5843 5845 5846 5848 5849 5851 5853 5854 5855 5857 5858 5859 5860 5861 5863 5865 5867 5868 5869 5870 5871 5872 5873 5874 5875 5875
5799 5799 5800 5802 5805 5808 5811 5816 5820 5823 5826 5830 5833 5834 5835 5837 5839 5840 5841 5842 5843 5845 5847 5849 5850 5852 5853 5854 5855 5856 5857 5859 5861 5862 5864 5865 5866 5867 5868 5869 5870 5870 5870
5792 5792 5792 5794 5797 5801 5805 5809 5813 5817 5821 5824 5827 5829 5831 5833 5835 5837 5838 5838 5839 5841 5843 5845 5847 5848 5850 5851 5851 5852 5854 5855 5857 5858 5859 5860 5862 5863 5864 5864 5865 5865 5864
5786 5785 5785 5786 5790 5795 5799 5803 5807 5811 5814 5818 5821 5823 5826 5828 5831 5833 5834 5835 5836 5837 5839 5841 5842 5844 5845 5846 5847 5849 5850 5852 5853 5853 5854 5855 5856 5857 5859 5859 5859 5859 5858
5781 5781 5781 5782 5785 5789 5793 5797 5801 5804 5808 5811 5814 5817 5819 5822 5825 5827 5829 5830 5832 5833 5835 5836 5838 5839 5840 5841 5843 5844 5846 5847 5849 5849 5850 5850 5851 5852 5853 5853 5852 5851 5850
5777 5778 5778 5779 5781 5784 5787 5791 5794 5797 5801 5804 5807 5810 5813 5815 5818 5820 5823 5824 5826 5828 5829 5831 5833 5834 5835 5837 5838 5840 5841 5843 5844 5844 5845 5845 5845 5846 5846 5846 5845 5844 5843
5772 5773 5775 5776 5778 5780 5782 5785 5788 5791 5794 5797 5800 5803 5806 5808 5811 5813 5816 5818 5820 5821 5823 5825 5827 5829 5830 5831 5832 5834 5836 5837 5838 5839 5839 5840 5840 5840 5840 5839 5838 5837 5836
5767 5768 5769 5771 5773 5775 5776 5778 5781 5783 5787 5790 5793 5796 5799 5801 5803 5805 5808 5810 5812 5815 5817 5819 5820 5822 5824 5826 5827 5828 5830 5832 5833 5833 5834 5834 5834 5834 5834 5833 5831 5830 5830
5762 5763 5765 5766 5767 5768 5770 5772 5774 5776 5778 5781 5784 5788 5790 5792 5795 5797 5799 5802 5805 5807 5810 5812 5814 5816 5817 5819 5821 5823 5824 5826 5827 5827 5828 5828 5828 5828 5828 5827 5826 5825 5824
5757 5758 5759 5760 5761 5762 5764 5765 5767 5768 5770 5773 5776 5779 5782 5784 5787 5789 5791 5794 5797 5800 5803 5806 5808 5809 5811 5813 5815 5817 5819 5820 5821 5822 5822 5822 5823 5823 5822 5822 5822 5821 5820
5751 5752 5753 5754 5755 5756 5757 5758 5760 5761 5763 5765 5768 5771 5774 5776 5779 5782 5785 5787 5790 5793 5796 5799 5802 5804 5806 5808 5810 5811 5813 5815 5816 5817 5817 5817 5817 5817 5816 5816 5817 5816 5816
5745 5746 5747 5748 5749 5750 5750 5751 5753 5755 5757 5758 5760 5763 5766 5769 5772 5774 5778 5781 5784 5787 5790 5793 5796 5798 5800 5802 5805 5806 5808 5809 5811 5812 5812 5812 5812 5811 5811 5811 5811 5811 5811
5738 5739 5740 5742 5743 5744 5745 5745 5746 5748 5750 5752 5753 5756 5759 5762 5765 5768 5770 5774 5777 5780 5784 5787 5790 5792 5794 5797 5799 5801 5803 5803 5805 5806 5806 5806 5806 5806 5806 5805 5805 5805 5805
5730 5731 5733 5734 5735 5737 5738 5739 5740 5741 5743 5745 5746 5749 5751 5754 5757 5760 5764 5767 5770 5773 5777 5781 5783 5785 5788 5790 5793 5795 5796 5797 5797 5799 5800 5801 5800 5800 5800 5799 5799 5800 5800
5722 5723 5724 5726 5728 5729 5730 5732 5733 5735 5736 5738 5740 5742 5744 5746 5750 5753 5756 5760 5763 5766 5770 5773 5776 5778 5781 5784 5786 5788 5789 5790 5791 5792 5794 5795 5794 5794 5794 5794 5794 5795 5795
5713 5714 5716 5718 5720 5721 5723 5725 5726 5728 5729 5732 5734 5735 5737 5739 5742 5745 5748 5752 5755 5759 5762 5766 5768 5771 5773 5777 5779 5781 5782 5783 5784 5786 5788 5788 5788 5788 5789 5789 5790 5789 5790